Погода в Лиллехаммере

Норвегия     61°07′14″N   10°27′33″E
темп.,
°C
ветер,
м/с
пор.,
м/с
влажн.,
%
обл.,
%
осадки,
мм/ч
давл.,
гПа
погр.,
м
16 апреля, пт
пт1623:00−2ссз22925 0.0 103742
02:00−3ссз22915 0.0 103743
05:00−2сз2486100 0.0 103784
08:00−1сз228099 0.0 1036125
11:00+3ссз117163 0.0 1036452
14:00+6св126089 0.0 10341323
17:00+6св126174 0.0 10331085
20:00+2ссв1186100 0.0 103410
17 апреля, сб
сб1723:00+1с119299 0.0 103613
02:00+1ссз118999 0.0 103529
05:000ссз119171 0.0 103523
08:00+2ссз12795 0.0 103586
11:00+6ссз11635 0.0 1034664
14:00+8ссв11584 0.0 10331052
17:00+8ссв12575 0.0 10321087
20:00+4с11865 0.0 103221
18 апреля, вс
вс1823:000ссз22905 0.0 103327
02:000ссз22915 0.0 103329
05:00−1ссз11932 0.0 103314
08:00+2ссз00840 0.0 1032104
11:00+7ююв11705 0.0 1031495
14:00+10ююв12565 0.0 10291000
17:00+10ю12484 0.0 10281158
20:00+7юз01685 0.0 102810
19 апреля, пн
пн1923:00+4ссз11814 0.0 102911
02:00+2ссз11873 0.0 102914
05:00+1ссз11894 0.0 102910
08:00+3с00814 0.0 1028107
11:00+8ююв13656 0.0 1027556
14:00+10ю3463100 0.0 10251348
17:00+10ююз3459100 0.0 10241319
20:00+8ююз2367100 0.0 102364
20 апреля, вт
вт2023:00+6зсз117647 0.0 102212
02:00+5юв118199 0.0 102116
05:00+4юв229136 0.0 102148
08:00+5юв13753 0.0 1020173
11:00+8ююв24573 0.0 1018820
14:00+11ю34435 0.0 10161737
17:00+12ююз344019 0.0 10141971
20:00+9ю22568 0.0 101319